Stündliche Wetter Mayrhofen

Heute, 1 Oktober, Donnerstag

Zeit Temperatur Niederschläge Wind Luftdruck Luftfeuchtigkeit
00:00 +4°C° 0 mm 1 m/S 613 mmHg 84%
01:00 +4°C° 0 mm 1 m/S 613 mmHg 82%
02:00 +3°C° 0 mm 1 m/S 612 mmHg 80%
03:00 +3°C° 0 mm 1 m/S 612 mmHg 78%
04:00 +3°C° 0 mm 1 m/S 611 mmHg 77%
05:00 +4°C° 0 mm 1 m/S 611 mmHg 76%
06:00 +4°C° 0 mm 1 m/S 611 mmHg 75%
07:00 +4°C° 0 mm 1 m/S 611 mmHg 74%
08:00 +6°C° 0 mm 1 m/S 612 mmHg 73%
09:00 +7°C° 0 mm 0 m/S 612 mmHg 73%
10:00 +9°C° 0 mm 0 m/S 613 mmHg 73%
11:00 +10°C° 0 mm 0 m/S 612 mmHg 71%
12:00 +10°C° 0 mm 0 m/S 612 mmHg 70%
13:00 +11°C° 0 mm 0 m/S 612 mmHg 68%
14:00 +10°C° 0 mm 0 m/S 612 mmHg 72%
15:00 +9°C° 0 mm 0 m/S 612 mmHg 76%
16:00 +9°C° 0 mm 0 m/S 611 mmHg 80%
17:00 +7°C° 0 mm 0 m/S 611 mmHg 84%
18:00 +6°C° 0 mm 0 m/S 610 mmHg 87%
19:00 +4°C° 0 mm 0 m/S 610 mmHg 91%
20:00 +4°C° 0 mm 0 m/S 610 mmHg 91%
21:00 +5°C° 0 mm 1 m/S 610 mmHg 91%
22:00 +5°C° 0 mm 1 m/S 610 mmHg 91%
23:00 +5°C° 0.1 mm 1 m/S 610 mmHg 92%

Morgen, 2 Oktober, Freitag

Zeit Temperatur Niederschläge Wind Luftdruck Luftfeuchtigkeit
00:00 +5°C° 0.1 mm 1 m/S 609 mmHg 93%
01:00 +4°C° 0.1 mm 2 m/S 609 mmHg 94%
02:00 +4°C° 0.1 mm 2 m/S 608 mmHg 95%
03:00 +4°C° 0.1 mm 2 m/S 608 mmHg 96%
04:00 +4°C° 0.1 mm 2 m/S 608 mmHg 96%
05:00 +4°C° 0.1 mm 2 m/S 607 mmHg 96%
06:00 +4°C° 0.1 mm 2 m/S 607 mmHg 96%
07:00 +3°C° 0.1 mm 3 m/S 607 mmHg 96%
08:00 +4°C° 0.3 mm 3 m/S 606 mmHg 94%
09:00 +4°C° 0.3 mm 3 m/S 606 mmHg 91%
10:00 +5°C° 0.3 mm 3 m/S 606 mmHg 89%
11:00 +5°C° 0.3 mm 3 m/S 606 mmHg 88%
12:00 +7°C° 0.3 mm 3 m/S 606 mmHg 87%
13:00 +6°C° 0.3 mm 4 m/S 606 mmHg 86%
14:00 +6°C° 0.6 mm 4 m/S 605 mmHg 88%
15:00 +6°C° 0.6 mm 4 m/S 605 mmHg 90%
16:00 +5°C° 0.6 mm 4 m/S 605 mmHg 92%
17:00 +5°C° 0.3 mm 4 m/S 605 mmHg 93%
18:00 +5°C° 0.3 mm 4 m/S 604 mmHg 94%
19:00 +5°C° 0.3 mm 5 m/S 604 mmHg 96%
20:00 +5°C° 0.1 mm 5 m/S 604 mmHg 96%
21:00 +5°C° 0.1 mm 5 m/S 604 mmHg 96%
22:00 +5°C° 0.1 mm 5 m/S 604 mmHg 96%
23:00 +5°C° 0.1 mm 5 m/S 604 mmHg 95%

übermorgen, 3 Oktober, Samstag

Zeit Temperatur Niederschläge Wind Luftdruck Luftfeuchtigkeit
00:00 +5°C° 0.1 mm 5 m/S 604 mmHg 95%
01:00 +5°C° 0.1 mm 5 m/S 604 mmHg 95%
02:00 +5°C° 0.1 mm 5 m/S 605 mmHg 95%
03:00 +5°C° 0.1 mm 5 m/S 605 mmHg 95%
04:00 +5°C° 0.1 mm 5 m/S 604 mmHg 94%
05:00 +5°C° 0.2 mm 5 m/S 604 mmHg 94%
06:00 +5°C° 0.2 mm 5 m/S 604 mmHg 93%
07:00 +5°C° 0.2 mm 5 m/S 604 mmHg 93%
08:00 +6°C° 0.3 mm 5 m/S 604 mmHg 89%
09:00 +7°C° 0.3 mm 5 m/S 605 mmHg 86%
10:00 +8°C° 0.3 mm 4 m/S 605 mmHg 82%
11:00 +8°C° 1.2 mm 4 m/S 605 mmHg 83%
12:00 +8°C° 1.2 mm 4 m/S 605 mmHg 84%
13:00 +9°C° 1.2 mm 3 m/S 606 mmHg 85%
14:00 +8°C° 1.9 mm 3 m/S 605 mmHg 88%
15:00 +8°C° 1.9 mm 3 m/S 605 mmHg 90%
16:00 +7°C° 1.9 mm 3 m/S 605 mmHg 93%
17:00 +6°C° 3.2 mm 2 m/S 605 mmHg 95%
18:00 +5°C° 3.2 mm 2 m/S 605 mmHg 96%
19:00 +4°C° 3.2 mm 2 m/S 605 mmHg 98%
20:00 +3°C° 0.8 mm 3 m/S 605 mmHg 97%
21:00 +2°C° 0.8 mm 3 m/S 605 mmHg 96%
22:00 0°C° 0.8 mm 4 m/S 605 mmHg 95%
23:00 0°C° 0 mm 4 m/S 605 mmHg 95%

4 Oktober, Sonntag

Zeit Temperatur Niederschläge Wind Luftdruck Luftfeuchtigkeit
00:00 -1°C° 0 mm 4 m/S 604 mmHg 94%
01:00 -1°C° 0 mm 4 m/S 604 mmHg 94%
02:00 -1°C° 0.4 mm 4 m/S 605 mmHg 94%
03:00 -1°C° 0.4 mm 4 m/S 605 mmHg 95%
04:00 -1°C° 0.4 mm 4 m/S 605 mmHg 95%
05:00 -1°C° 0.3 mm 4 m/S 606 mmHg 95%
06:00 +1°C° 0.3 mm 3 m/S 606 mmHg 95%
07:00 +1°C° 0.3 mm 3 m/S 607 mmHg 95%
08:00 +2°C° 0.3 mm 3 m/S 607 mmHg 93%
09:00 +3°C° 0.3 mm 3 m/S 607 mmHg 90%
10:00 +4°C° 0.3 mm 3 m/S 608 mmHg 87%
11:00 +4°C° 0.3 mm 3 m/S 608 mmHg 85%
12:00 +4°C° 0.3 mm 3 m/S 608 mmHg 84%
13:00 +5°C° 0.3 mm 3 m/S 608 mmHg 82%
14:00 +5°C° 0.1 mm 3 m/S 608 mmHg 81%
15:00 +5°C° 0.1 mm 3 m/S 608 mmHg 80%
16:00 +5°C° 0.1 mm 3 m/S 608 mmHg 79%
17:00 +4°C° 0.1 mm 3 m/S 608 mmHg 84%
18:00 +2°C° 0.1 mm 3 m/S 607 mmHg 89%
19:00 +1°C° 0.1 mm 3 m/S 607 mmHg 95%
20:00 +1°C° 0.2 mm 3 m/S 607 mmHg 95%
21:00 +1°C° 0.2 mm 3 m/S 607 mmHg 95%
22:00 +1°C° 0.2 mm 3 m/S 607 mmHg 95%
23:00 +2°C° 0.5 mm 2 m/S 606 mmHg 95%

5 Oktober, Montag

Zeit Temperatur Niederschläge Wind Luftdruck Luftfeuchtigkeit
00:00 +2°C° 0.5 mm 2 m/S 606 mmHg 94%
01:00 +2°C° 0.5 mm 2 m/S 606 mmHg 94%
02:00 +3°C° 0.6 mm 1 m/S 606 mmHg 94%
03:00 +3°C° 0.6 mm 1 m/S 606 mmHg 95%
04:00 +2°C° 0.6 mm 0 m/S 605 mmHg 96%
05:00 +1°C° 1.7 mm 0 m/S 606 mmHg 97%
06:00 +1°C° 1.7 mm 0 m/S 606 mmHg 98%
07:00 +1°C° 1.7 mm 0 m/S 606 mmHg 99%
08:00 +1°C° 1.7 mm 0 m/S 606 mmHg 99%
09:00 +1°C° 1.7 mm 0 m/S 606 mmHg 99%
10:00 +1°C° 1.7 mm 0 m/S 606 mmHg 99%
11:00 +2°C° 0.6 mm 0 m/S 606 mmHg 98%
12:00 +2°C° 0.6 mm 0 m/S 606 mmHg 97%
13:00 +2°C° 0.6 mm 0 m/S 606 mmHg 97%
14:00 +4°C° 0.1 mm 1 m/S 606 mmHg 96%
15:00 +4°C° 0.1 mm 1 m/S 606 mmHg 95%
16:00 +4°C° 0.1 mm 1 m/S 606 mmHg 94%
17:00 +4°C° 0.1 mm 1 m/S 606 mmHg 95%
18:00 +3°C° 0.1 mm 1 m/S 606 mmHg 96%
19:00 +2°C° 0.1 mm 1 m/S 607 mmHg 97%
20:00 +3°C° 0.1 mm 1 m/S 607 mmHg 97%
21:00 +3°C° 0.1 mm 1 m/S 607 mmHg 97%
22:00 +3°C° 0.1 mm 1 m/S 607 mmHg 97%
23:00 +2°C° 0.1 mm 1 m/S 607 mmHg 97%

6 Oktober, Dienstag

Zeit Temperatur Niederschläge Wind Luftdruck Luftfeuchtigkeit
00:00 +2°C° 0.1 mm 1 m/S 607 mmHg 97%
01:00 +2°C° 0.1 mm 1 m/S 607 mmHg 97%
02:00 +2°C° 0.1 mm 1 m/S 607 mmHg 96%
03:00 -1°C° 0.1 mm 2 m/S 607 mmHg 96%
04:00 -1°C° 0.1 mm 2 m/S 607 mmHg 96%
05:00 -1°C° 0 mm 2 m/S 607 mmHg 95%
06:00 -1°C° 0 mm 2 m/S 607 mmHg 95%
07:00 +1°C° 0 mm 1 m/S 607 mmHg 94%
08:00 +1°C° 0 mm 2 m/S 607 mmHg 92%
09:00 +3°C° 0 mm 2 m/S 608 mmHg 90%
10:00 +4°C° 0 mm 2 m/S 608 mmHg 88%
11:00 +4°C° 0 mm 2 m/S 608 mmHg 86%
12:00 +5°C° 0 mm 2 m/S 608 mmHg 84%
13:00 +5°C° 0 mm 2 m/S 608 mmHg 82%
14:00 +5°C° 0.1 mm 2 m/S 608 mmHg 83%
15:00 +5°C° 0.1 mm 2 m/S 608 mmHg 84%
16:00 +6°C° 0.1 mm 1 m/S 608 mmHg 86%
17:00 +5°C° 0.2 mm 1 m/S 608 mmHg 89%
18:00 +4°C° 0.2 mm 1 m/S 608 mmHg 92%
19:00 +3°C° 0.2 mm 1 m/S 608 mmHg 95%
20:00 +2°C° 0.3 mm 1 m/S 608 mmHg 95%
21:00 +2°C° 0.3 mm 1 m/S 608 mmHg 95%
22:00 +2°C° 0.3 mm 1 m/S 608 mmHg 95%
23:00 +2°C° 0.2 mm 1 m/S 608 mmHg 95%
Mehr zeigen